FW4751 Weather Reports


time (UTC)temp
F
wind
direction
speed
knots
gust
knots
rain 1hr
in
rain 24hr
in
rain mn
in
humidity
%
barometer
mb
20260504215004 70 225 2.6 6.1 0.00 0.00 0.00 52 1015.4
20260504214510 71 225 2.6 7.0 0.00 0.00 0.00 50 1015.3
20260504214005 71 203 2.6 7.0 0.00 0.00 0.00 50 1015.5
20260504213505 71 225 2.6 7.0 0.00 0.00 0.00 50 1015.4
20260504213005 71 225 2.6 7.8 0.00 0.00 0.00 50 1015.5
20260504212504 70 225 2.6 7.8 0.00 0.00 0.00 49 1015.4
20260504212005 71 225 2.6 6.1 0.00 0.00 0.00 49 1015.5
20260504211505 71 225 2.6 7.8 0.00 0.00 0.00 50 1015.4
20260504211005 71 315 1.7 6.1 0.00 0.00 0.00 52 1015.5
20260504210504 70 293 2.6 7.0 0.00 0.00 0.00 54 1015.6
20260504210005 69 225 2.6 6.1 0.00 0.00 0.00 54 1015.4
20260504205504 69 225 2.6 7.0 0.00 0.00 0.00 55 1015.6
20260504205004 68 225 2.6 6.1 0.00 0.00 0.00 55 1015.6
20260504204504 67 293 0.9 3.5 0.00 0.00 0.00 59 1015.6
20260504204005 66 315 1.7 5.2 0.00 0.00 0.00 59 1015.6
20260504203505 66 338 0.9 3.5 0.00 0.00 0.00 60 1015.6
20260504203004 65 315 0.9 3.5 0.00 0.00 0.00 61 1015.6
20260504202504 64 0 0.9 2.6 0.00 0.00 0.00 63 1015.6
20260504202004 63 293 0.9 2.6 0.00 0.00 0.00 64 1015.7
20260504201504 62 338 0.9 2.6 0.00 0.00 0.00 65 1015.7
20260504201024 62 338 0.9 2.6 0.00 0.00 0.00 65 1015.8
20260504200504 62 293 0.9 1.7 0.00 0.00 0.00 67 1015.8
20260504200004 62 338 0.9 3.5 0.00 0.00 0.00 67 1015.8
20260504195505 62 45 0.9 2.6 0.00 0.00 0.00 65 1015.9
20260504195004 62 338 1.7 3.5 0.00 0.00 0.00 66 1015.8
20260504194505 61 45 1.7 5.2 0.00 0.00 0.00 67 1016.0
20260504194025 61 45 1.7 3.5 0.00 0.00 0.00 69 1015.9
20260504193504 61 338 1.7 4.3 0.00 0.00 0.00 68 1015.9
20260504193005 61 45 1.7 4.3 0.00 0.00 0.00 68 1015.9
20260504192525 61 45 1.7 4.3 0.00 0.00 0.00 69 1015.9
20260504192005 61 45 1.7 3.5 0.00 0.00 0.00 70 1015.9
20260504191524 61 45 2.6 4.3 0.00 0.00 0.00 70 1016.0
20260504191004 61 338 1.7 4.3 0.00 0.00 0.00 71 1015.9
20260504190504 61 45 1.7 4.3 0.00 0.00 0.00 70 1015.9
20260504190005 61 45 1.7 3.5 0.00 0.00 0.00 69 1015.9
20260504185504 61 45 1.7 3.5 0.00 0.00 0.00 69 1016.0
20260504185005 61 338 0.9 3.5 0.00 0.00 0.00 68 1015.9
20260504184504 61 45 0.9 3.5 0.00 0.00 0.00 66 1015.9
20260504184004 62 45 1.7 3.5 0.00 0.00 0.00 66 1015.8
20260504183504 63 45 1.7 4.3 0.00 0.00 0.00 65 1015.9
20260504183004 64 68 1.7 3.5 0.00 0.00 0.00 65 1016.0
20260504182504 63 45 0.9 2.6 0.00 0.00 0.00 66 1015.8
20260504182004 62 45 0.9 2.6 0.00 0.00 0.00 67 1015.8
20260504181504 62 45 0.9 3.5 0.00 0.00 0.00 68 1015.8
20260504181004 61 45 0.9 3.5 0.00 0.00 0.00 67 1015.7
20260504180504 61 45 1.7 3.5 0.00 0.00 0.00 66 1015.9
20260504180004 63 45 1.7 3.5 0.00 0.00 0.00 62 1015.9
20260504175504 65 45 1.7 3.5 0.00 0.00 0.00 59 1015.7
20260504175024 66 45 0.9 3.5 0.00 0.00 0.00 57 1015.6
20260504174504 67 135 0.9 1.7 0.00 0.00 0.00 57 1015.6
20260504174024 67 135 0.9 2.6 0.00 0.00 0.00 56 1015.7
20260504173504 67 135 0.9 1.7 0.00 0.00 0.00 57 1015.7
20260504173004 67 135 0.9 1.7 0.00 0.00 0.00 58 1015.6
20260504172504 67 113 0.9 3.5 0.00 0.00 0.00 58 1015.5
20260504172004 67 135 0.9 1.7 0.00 0.00 0.00 59 1015.5
20260504171504 65 113 0.9 1.7 0.00 0.00 0.00 60 1015.5
20260504171004 65 113 1.7 3.5 0.00 0.00 0.00 62 1015.3
20260504170504 64 113 1.7 4.3 0.00 0.00 0.00 63 1015.3
20260504151004 57 113 0.9 1.7 0.00 0.00 0.00 77 1015.5
20260504150504 57 45 0.9 1.7 0.00 0.00 0.00 81 1015.4
20260504141003 48 225 0.9 1.7 0.00 0.00 0.00 90 1015.3
20260504140503 48 0.0 0.9 0.00 0.00 0.00 90 1015.3
20260504130503 48 0.0 0.9 0.00 0.00 0.00 89 1014.9
20260504110503 48 0.0 0.9 0.00 0.00 0.00 87 1015.1
20260504100503 49 0.0 0.9 0.00 0.00 0.00 84 1014.9
20260504082003 53 0.0 0.9 0.00 0.00 0.00 80 1015.3
20260504081525 53 0.0 1.7 0.00 0.00 0.00 80 1015.3
20260504081025 53 0 0.9 1.7 0.00 0.00 0.00 79 1015.4
20260504080545 53 0.0 1.7 0.00 0.00 0.00 78 1015.4
20260504050505 55 293 0.9 3.5 0.00 0.00 0.00 77 1015.1
20260504050004 55 315 0.9 1.7 0.00 0.00 0.00 77 1015.1
20260504045524 55 315 0.9 1.7 0.00 0.00 0.00 76 1014.8
20260504045004 55 315 0.9 1.7 0.00 0.00 0.00 76 1014.7
20260504044505 55 315 0.9 1.7 0.00 0.00 0.00 76 1014.7
20260504044004 55 225 0.9 3.5 0.00 0.00 0.00 76 1014.7
20260504043504 55 225 0.9 3.5 0.00 0.00 0.00 75 1014.7
20260504043004 55 270 0.9 1.7 0.00 0.00 0.00 75 1014.6
20260504042504 55 270 0.9 1.7 0.00 0.00 0.00 75 1014.5
20260504042004 55 225 1.7 4.3 0.00 0.00 0.00 74 1014.5
20260504041504 55 225 1.7 4.3 0.00 0.00 0.00 74 1014.5
20260504041005 55 225 1.7 5.2 0.00 0.00 0.00 74 1014.5
20260504040524 55 203 0.9 4.3 0.00 0.00 0.00 74 1014.3
20260504040024 56 225 1.7 3.5 0.00 0.00 0.00 74 1014.3
20260504035504 56 225 1.7 5.2 0.00 0.00 0.00 74 1014.2
20260504035004 56 225 1.7 5.2 0.00 0.00 0.00 74 1014.1
20260504034505 56 225 1.7 5.2 0.00 0.00 0.00 74 1014.1
20260504034025 56 225 1.7 6.1 0.00 0.00 0.00 73 1014.0
20260504033524 56 225 1.7 7.8 0.00 0.00 0.00 72 1014.0
20260504033004 56 225 2.6 6.1 0.00 0.00 0.00 72 1013.9
20260504032505 57 270 2.6 5.2 0.00 0.00 0.00 71 1013.8
20260504032004 57 248 1.7 7.0 0.00 0.00 0.00 70 1013.8
20260504031504 57 270 1.7 8.7 0.00 0.00 0.00 69 1013.7
20260504031004 57 248 1.7 4.3 0.00 0.00 0.00 68 1013.7
20260504030504 58 315 0.9 4.3 0.00 0.00 0.00 68 1013.7
20260504030004 58 270 2.6 7.8 0.00 0.00 0.00 68 1013.6
20260504025504 58 315 1.7 4.3 0.00 0.00 0.00 68 1013.5
20260504025005 59 293 1.7 4.3 0.00 0.00 0.00 68 1013.5
20260504024504 59 315 1.7 7.0 0.00 0.00 0.00 67 1013.4
20260504024004 59 248 1.7 4.3 0.00 0.00 0.00 67 1013.2
20260504023504 59 225 1.7 5.2 0.00 0.00 0.00 67 1013.0
20260504023004 59 315 1.7 5.2 0.00 0.00 0.00 68 1013.0
20260504022504 60 225 2.6 7.0 0.00 0.00 0.00 67 1013.0
20260504022024 60 270 1.7 4.3 0.00 0.00 0.00 67 1013.0
20260504021504 60 225 1.7 7.8 0.00 0.00 0.00 67 1013.0
20260504021004 60 248 2.6 7.8 0.00 0.00 0.00 66 1012.8
20260504020504 60 225 2.6 7.8 0.00 0.00 0.00 65 1012.8
20260504020004 61 225 1.7 7.0 0.00 0.00 0.00 65 1012.9
20260504015524 61 270 3.5 7.8 0.00 0.00 0.00 65 1013.0
20260504015004 61 225 3.5 9.6 0.00 0.00 0.00 64 1013.1
20260504014504 62 293 2.6 8.7 0.00 0.00 0.00 63 1013.0
20260504014004 62 225 2.6 7.8 0.00 0.00 0.00 63 1012.9
20260504013524 62 248 2.6 7.8 0.00 0.00 0.00 61 1012.9
20260504013004 63 225 2.6 7.0 0.00 0.00 0.00 61 1012.9
20260504012524 63 293 2.6 7.0 0.00 0.00 0.00 60 1012.9
20260504012004 63 225 2.6 8.7 0.00 0.00 0.00 60 1013.0
20260504011504 64 225 3.5 8.7 0.00 0.00 0.00 58 1012.9
20260504011004 65 225 2.6 7.0 0.00 0.00 0.00 57 1013.0
20260504010504 65 225 3.5 7.0 0.00 0.00 0.00 56 1012.9
20260504010004 66 225 2.6 7.0 0.00 0.00 0.00 56 1012.8
20260504005504 66 315 3.5 7.0 0.00 0.00 0.00 56 1013.0
20260504005004 66 225 1.7 5.2 0.00 0.00 0.00 57 1012.9
20260504004504 65 225 2.6 7.0 0.00 0.00 0.00 57 1012.9
20260504004004 65 248 2.6 7.0 0.00 0.00 0.00 56 1012.8
20260504003524 64 225 3.5 7.0 0.00 0.00 0.00 56 1013.0
20260504003004 64 270 2.6 7.0 0.00 0.00 0.00 56 1012.9
20260504002504 65 225 2.6 7.0 0.00 0.00 0.00 58 1012.9
20260504002024 65 270 2.6 7.0 0.00 0.00 0.00 58 1012.7
20260504001504 65 248 2.6 7.0 0.00 0.00 0.00 57 1012.8
20260504001004 66 248 2.6 6.1 0.00 0.00 0.00 55 1012.7
20260504000503 66 248 2.6 7.8 0.00 0.00 0.00 55 1012.7
20260504000003 67 248 2.6 7.8 0.00 0.00 0.00 55 1012.6
20260503235504 67 248 3.5 7.8 0.00 0.00 0.00 54 1012.6
20260503235004 68 315 2.6 5.2 0.00 0.00 0.00 54 1012.6
20260503234504 67 315 2.6 7.8 0.00 0.00 0.00 55 1012.7
20260503234024 67 315 2.6 7.8 0.00 0.00 0.00 54 1012.6
20260503233503 67 225 2.6 7.8 0.00 0.00 0.00 54 1012.7
20260503233003 67 225 2.6 7.0 0.00 0.00 0.00 55 1012.7
20260503232503 66 225 2.6 8.7 0.00 0.00 0.00 55 1012.8
20260503232003 66 225 2.6 8.7 0.00 0.00 0.00 56 1012.9
20260503231504 65 225 1.7 7.8 0.00 0.00 0.00 59 1012.9
20260503231044 65 225 3.5 7.8 0.00 0.00 0.00 59 1013.0
20260503230504 64 225 1.7 5.2 0.00 0.00 0.00 60 1012.9
20260503230024 64 225 3.5 8.7 0.00 0.00 0.00 60 1013.0
20260503225503 64 225 2.6 6.1 0.00 0.00 0.00 61 1013.0
20260503225003 64 225 2.6 6.1 0.00 0.00 0.00 61 1013.0
20260503224524 64 225 3.5 7.8 0.00 0.00 0.00 61 1013.1
20260503224003 64 248 2.6 7.8 0.00 0.00 0.00 61 1013.1
20260503223504 63 270 2.6 9.6 0.00 0.00 0.00 63 1013.1
20260503223003 63 225 2.6 7.8 0.00 0.00 0.00 64 1013.1
20260503222504 63 225 2.6 7.8 0.00 0.00 0.00 64 1013.1
20260503222024 63 293 2.6 6.1 0.00 0.00 0.00 63 1013.1
20260503221504 64 225 2.6 7.8 0.00 0.00 0.00 63 1013.1
20260503221003 64 225 2.6 7.0 0.00 0.00 0.00 62 1013.0
20260503220504 64 225 2.6 8.7 0.00 0.00 0.00 62 1013.1
20260503220003 65 225 2.6 6.1 0.00 0.00 0.00 62 1013.0
20260503215504 64 225 2.6 6.1 0.00 0.00 0.00 63 1013.0